Fort Myers, FL

5:30 PM EDT on May 25, 2017 (GMT -0400)
Page

Weather History for KFMY - June, 2013

Change the Weather History Date:

Friday, June 28, 2013

  Actual Average Record
Temperature  
Mean Temperature 82 °F 83 °F  
Max Temperature 89 °F 92 °F 98 °F (1980)
Min Temperature 74 °F 74 °F 67 °F (1950)
Degree Days  
Heating Degree Days 0 0  
Month to date heating degree days 0 0  
Since 1 June heating degree days 0 0  
Since 1 July heating degree days 201 287  
Cooling Degree Days 17 18  
Month to date cooling degree days 470 492  
Year to date cooling degree days 1608 1558  
Since 1 June cooling degree days 470 492  
Growing Degree Days 31 (Base 50)    
Moisture  
Dew Point 73 °F    
Average Humidity 75    
Maximum Humidity 100    
Minimum Humidity 59    
Precipitation  
Precipitation 0.00 in 0.37 in 3.74 in (1992)
Month to date precipitation 8.83 9.35  
Year to date precipitation 18.99 21.15  
Sea Level Pressure  
Sea Level Pressure 29.94 in    
Wind  
Wind Speed 4 mph (WSW)    
Max Wind Speed 15 mph    
Max Gust Speed 21 mph    
Visibility 10 miles    
Events Thunderstorm    
T = Trace of Precipitation, MM = Missing Value Source: NWS Daily Summary

Daily Weather History Graph

Daily Weather History Graph

Search for Another Location

Airport or City:

Trip Planner

Search our weather history database for the weather conditions in past years. The results will help you decide how hot, cold, wet, or windy it might be!

Date:

Astronomy

Jun. 28, 2013 Rise Set
Actual Time 6:36 AM EDT 8:24 PM EDT
Civil Twilight 6:10 AM EDT 8:50 PM EDT
Nautical Twilight 5:39 AM EDT 9:22 PM EDT
Astronomical Twilight 5:05 AM EDT 9:55 PM EDT
Moon No Moon Rise 12:08 PM EDT (6/28)
Length of Visible Light 14h 40m
Length of Day
13h 47m
Waning Gibbous, 66% of the Moon is Illuminated
Jun 28
Waning Gibbous
Jun 30
Last Quarter
Jul 8
New
Jul 15
First Quarter
Jul 22
Full

Hourly Weather History & Observations

Time (EDT) Temp. Heat Index Dew Point Humidity Pressure Visibility Wind Dir Wind Speed Gust Speed Precip Events Conditions
12:53 AM 73.9 °F - 73.0 °F 97% 29.99 in 10.0 mi Calm Calm - N/A   Clear
1:53 AM 73.9 °F - 72.0 °F 93% 29.99 in 10.0 mi Calm Calm - N/A   Clear
2:53 AM 73.9 °F - 73.0 °F 97% 29.99 in 10.0 mi Calm Calm - N/A   Clear
3:53 AM 73.9 °F - 73.0 °F 97% 29.98 in 10.0 mi Calm Calm - N/A   Clear
4:53 AM 73.9 °F - 73.0 °F 97% 29.98 in 10.0 mi Calm Calm - N/A   Clear
5:53 AM 73.9 °F - 73.0 °F 97% 29.97 in 10.0 mi South 4.6 mph - N/A   Clear
6:53 AM 75.0 °F - 73.0 °F 94% 29.97 in 10.0 mi Calm Calm - N/A   Clear
7:53 AM 77.0 °F - 73.0 °F 88% 29.98 in 10.0 mi Calm Calm - N/A   Clear
8:53 AM 81.0 °F 85.8 °F 73.0 °F 77% 29.99 in 10.0 mi Calm Calm - N/A   Clear
9:53 AM 82.9 °F 89.4 °F 73.9 °F 74% 29.99 in 10.0 mi Calm Calm - N/A   Clear
10:53 AM 86.0 °F 93.0 °F 73.0 °F 65% 29.97 in 10.0 mi Calm Calm - N/A   Scattered Clouds
11:53 AM 87.1 °F 93.6 °F 72.0 °F 61% 29.96 in 10.0 mi West 6.9 mph - N/A   Scattered Clouds
12:53 PM 88.0 °F 97.5 °F 75.0 °F 65% 29.95 in 10.0 mi West 9.2 mph - N/A   Mostly Cloudy
1:53 PM 89.1 °F 98.0 °F 73.9 °F 61% 29.94 in 10.0 mi West 11.5 mph - N/A Thunderstorm Thunderstorm
2:12 PM 86.0 °F 93.4 °F 73.4 °F 66% 29.93 in 10.0 mi West 10.4 mph - N/A   Scattered Clouds
2:53 PM 88.0 °F 94.7 °F 72.0 °F 59% 29.92 in 10.0 mi SW 5.8 mph - N/A   Partly Cloudy
3:53 PM 89.1 °F 98.0 °F 73.9 °F 61% 29.89 in 10.0 mi WSW 10.4 mph 20.7 mph N/A   Mostly Cloudy
4:53 PM 88.0 °F 93.8 °F 71.1 °F 57% 29.88 in 10.0 mi WSW 11.5 mph - N/A   Clear
5:53 PM 87.1 °F 93.6 °F 72.0 °F 61% 29.88 in 10.0 mi WSW 10.4 mph - N/A   Partly Cloudy
6:53 PM 86.0 °F 91.5 °F 71.1 °F 61% 29.89 in 10.0 mi West 10.4 mph - N/A   Clear
7:53 PM 84.9 °F 90.1 °F 71.1 °F 63% 29.89 in 10.0 mi West 9.2 mph - N/A   Clear
8:53 PM 82.9 °F 88.8 °F 73.0 °F 72% 29.91 in 10.0 mi Calm Calm - N/A   Clear
9:53 PM 82.9 °F 88.0 °F 72.0 °F 69% 29.92 in 10.0 mi Calm Calm - N/A   Clear
10:53 PM 82.0 °F 87.9 °F 73.9 °F 76% 29.92 in 10.0 mi Calm Calm - N/A   Clear
11:53 PM 81.0 °F 86.2 °F 73.9 °F 79% 29.93 in 10.0 mi Calm Calm - N/A   Clear